Hourly Weather Roundup
Issued by NWS Central Illinois

Home | Current Version | Previous Version | Text Only | Print | Product List | Glossary On
Versions: 1 2 3 4 5 6 7 8 9 10 11 12 13 14 15 16 17 18 19 20 21 22 23 24 25 26 27 28 29 30 31 32 33 34 35 36 37 38 39 40 41 42 43 44 45 46 47 48 49 50
706
NZUS43 KILX 140610
HWRILX

AREA WEATHER ROUNDUP
NATIONAL WEATHER SERVICE, LINCOLN IL
1200 AM CST SUN FEB 14 2016


CITY           SKY/WX    TMP DP  RH WIND       PRES   REMARKS
BLOOMINGTON    CLOUDY    17   5  59 SE8       30.42F WCI   7
6HR MIN TEMP:  15; 6HR MAX TEMP:  17;

CHAMPAIGN      CLOUDY    17   3  54 SE9       30.43F WCI   6
6HR MIN TEMP:  16; 6HR MAX TEMP:  18;

DANVILLE       MOCLDY    16   5  63 E5        30.43S WCI   9
6HR MIN TEMP:  13; 6HR MAX TEMP:  16;

DECATUR        CLOUDY    19   4  51 SE8       30.42F WCI   9
6HR MIN TEMP:  18; 6HR MAX TEMP:  19;

EFFINGHAM      CLOUDY    20   8  59 E6        30.46S WCI  12
FLORA          CLOUDY    22   5  47 E5        30.45F WCI  16
6HR MIN TEMP:  22; 6HR MAX TEMP:  22;

GALESBURG      CLOUDY    18   2  51 SE9       30.40S WCI   6
JACKSONVILLE   CLOUDY    21  12  68 E6        30.42R WCI  13
6HR MIN TEMP:  21; 6HR MAX TEMP:  22;

LACON          CLOUDY    18  -1  43 SE8       30.43S WCI   7
6HR MIN TEMP:  17; 6HR MAX TEMP:  18;

LAWRENCEVILLE  CLOUDY    20   3  48 E8        30.47F WCI  10
6HR MIN TEMP:  18; 6HR MAX TEMP:  20;

LITCHFIELD     CLOUDY    20   6  55 SE9       30.40F WCI   9
$$


CITY           SKY/WX    TMP DP  RH WIND       PRES   REMARKS
LINCOLN        CLOUDY    19   6  55 SE8       30.43S WCI   9
6HR MIN TEMP:  19; 6HR MAX TEMP:  20;

MACOMB         LGT SNOW  16  13  88 SE10      30.43F WCI   4
MATTOON        CLOUDY    17   3  54 SE5       30.43F WCI  10
6HR MIN TEMP:  16; 6HR MAX TEMP:  17;

MT CARMEL AP   CLOUDY    21   3  45 CALM      30.46F
OLNEY-NOBLE AP CLOUDY    19   5  53 E7        30.47R WCI  10
PARIS          CLOUDY    17   3  55 E3        30.46S
6HR MIN TEMP:  16; 6HR MAX TEMP:  17;

PEORIA         CLOUDY    19   0  43 SE7       30.43S WCI  10
6HR MIN TEMP:  18; 6HR MAX TEMP:  19;

PONTIAC        CLOUDY    17   5  58 E7        30.45S WCI   8
RANTOUL        CLOUDY    19   5  54 SE8       30.43S WCI   9
6HR MIN TEMP:  19; 6HR MAX TEMP:  19;

ROBINSON       CLOUDY    19   3  51 SE7       30.47F WCI   9
6HR MIN TEMP:  18; 6HR MAX TEMP:  19;

SPRINGFIELD    CLOUDY    20   6  55 SE9       30.42F WCI   9
6HR MIN TEMP:  20; 6HR MAX TEMP:  20;

TAYLORVILLE    CLOUDY    19   5  53 E8        30.42F WCI   9
$$

...REGIONAL REPORTS...


CITY           SKY/WX    TMP DP  RH WIND       PRES   REMARKS
CHICAGO O`HARE MOCLDY    11  -3  53 NE6       30.45F WCI   1
KANKAKEE       MOCLDY    14   3  62 E7        30.46F WCI   4
MOLINE         CLOUDY    18   0  45 SE7       30.41F WCI   9
MOUNT STERLING CLOUDY    17  12  82 SE10      30.39F WCI   4
MOUNT VERNON   CLOUDY    21   3  45 E7        30.44S WCI  13
PITTSFIELD     CLOUDY    20  10  64 E6        30.40F WCI  12
QUINCY         CLOUDY    17  10  74 SE13      30.37F WCI   4
ROCKFORD       CLOUDY    11  -2  56 E7        30.45F WCI   0
$$


CITY           SKY/WX    TMP DP  RH WIND       PRES   REMARKS
BURLINGTON     LGT SNOW  16  13  88 SE8       30.39S VSB 1   WCI   5
CEDAR RAPIDS   CLOUDY    16   1  51 SE8       30.34F WCI   5
DES MOINES     FLURRIES  15   9  76 SE12G21   30.27F WCI   2
KIRKSVILLE     CLOUDY    19   6  57 SE15      30.29F WCI   5
OTTUMWA        LGT SNOW  15  12  88 SE12      30.32F FOG     WCI   2
ST LOUIS       CLOUDY    24   6  46 SE12      30.39F WCI  13
$$


CITY           SKY/WX    TMP DP  RH WIND       PRES   REMARKS
TERRE HAUTE    CLOUDY    17   2  51 E7        30.46F WCI   8
EVANSVILLE     CLOUDY    23   3  42 E7        30.47S WCI  15
INDIANAPOLIS   CLOUDY    15   0  51 E9        30.44F WCI   3
LAFAYETTE      CLOUDY    12   4  70 E7        30.48S WCI   1
MADISON        PTCLDY     4  -6  63 E8        30.41F WCI  -9
MILWAUKEE      CLOUDY     7  -5  57 W3        30.46F
$$






USA.gov is the U.S. government's official web portal to all federal, state and local government web resources and services.